Tracking 21470 objects as of 25-Sep-2020
HD Live streaming from Space Station
objects crossing your sky now

DELTA 1 DEB

Track DELTA 1 DEB now!
10-day predictions


NORAD ID: 37637
Int'l Code: 1978-026HY
Perigee: 868.3 km
Apogee: 977.5 km
Inclination: 98.8 °
Period: 103.3 minutes
Semi major axis: 7293 km
RCS: 0.0061 m2 (small)
Launch date: March 5, 1978
Source: United States (US)
Launch site: AIR FORCE WESTERN TEST RANGE (AFWTR)

Note: This is SATELLITE DEBRIS
aabbcc
Your satellite tracking list
Your tracking list is empty




NASA's NSSDC Master Catalog

Two Line Element Set (TLE):
1 37637U 78026HY  20268.78028631 +.00000251 +00000-0 +21734-3 0  9990
2 37637 098.7522 267.3377 0074869 211.3029 148.3665 13.93671488903632
Source of the keplerian elements: AFSPC